Regional Weather Roundup
Issued by NWS

Home | Current Version | Previous Version | Graphics & Text | Print | Product List | Glossary On
Versions: 1 2 3 4 5 6 7 8 9 10 11 12 13 14 15 16 17 18 19 20 21 22 23 24 25 26 27
000
ASUS45 KTFX 270110
RWRMT
MONTANA REGIONAL WEATHER ROUNDUP
NATIONAL WEATHER SERVICE GREAT FALLS MT
700 PM MDT MON SEP 26 2016

NOTE: "FAIR" INDICATES FEW OR NO CLOUDS BELOW 12000 FEET WITH NO
SIGNIFICANT WEATHER AND/OR OBSTRUCTIONS TO VISIBILITY.

MTZ001>007-043-270200-
WEST OF THE DIVIDE

CITY           SKY/WX    TMP DP  RH WIND       PRES   REMARKS
KALISPELL      CLEAR     69  46  43 W3        30.13F
MISSOULA       CLEAR     72  50  45 SW5       30.16F
BUTTE          CLEAR     71  37  28 CALM      30.28F
MULLAN PASS    CLEAR     63  39  41 VRB3      30.29F
ANACONDA         N/A     66  39  37 NW5       30.25F
DEER LODGE       N/A     72  41  33 CALM      30.26F
EUREKA           N/A     77  45  31 SE6       30.09F
HAMILTON         N/A     72  52  49 NE3       30.17F
LIBBY            N/A     75  48  38 CALM      30.08F
PLAINS           N/A     76  46  34 CALM      30.10F
RONAN            N/A     72  50  45 CALM      30.18F
$$

MTZ008-052>055-270200-
SOUTHWEST MONTANA

CITY           SKY/WX    TMP DP  RH WIND       PRES   REMARKS
BOZEMAN        CLEAR     71  37  28 CALM      30.23F
DILLON         CLOUDY    68  45  43 N5        30.25F
W YELLOWSTONE  CLOUDY    63  39  42 SW7       30.38F
ENNIS          CLEAR     66  39  37 E8        30.32F
THREE FORKS      N/A     69  37  30 CALM      30.19F
TWIN BRIDGES     N/A     75  42  30 SE2       30.21F
$$

MTZ009-010-012-014-046-048-049-054-270200-
EAST SLOPES AND CENTRAL MONTANA

CITY           SKY/WX    TMP DP  RH WIND       PRES   REMARKS
CUT BANK       CLEAR     68  39  34 SW12      30.09F
GREAT FALLS    CLEAR     67  42  40 SW12      30.11F
MALMSTROM AFB  CLEAR     67  43  41 SW10      30.11F
HELENA         CLEAR     74  43  32 SE5       30.18F
CHOTEAU          N/A     72  37  28 W6        30.13F
CONRAD           N/A     72  42  33 SW1       30.12F
$$

MTZ011-013-016-021-045-047-050-051-270200-
NORTH CENTRAL MONTANA

CITY           SKY/WX    TMP DP  RH WIND       PRES   REMARKS
HAVRE          CLEAR     68  48  48 S10       30.04F
LEWISTOWN      CLEAR     67  45  45 S6        30.16F
N BAR RANCH      N/A     61  48  63 SW5       30.21F
CHINOOK          N/A     66  48  52 E6        30.05F
$$

MTZ017>020-022>027-061-062-270200-
NORTHEAST MONTANA

CITY           SKY/WX    TMP DP  RH WIND       PRES   REMARKS
GLASGOW        CLEAR     66  45  46 W5        30.09F
JORDAN           N/A     67  49  52 CALM      30.11F
SIDNEY         CLEAR     56  42  59 W7        30.10F
WOLF POINT     CLEAR     64  45  49 SW5       30.10F
POPLAR           N/A     63  45  51 W6        30.09F
SCOBEY           N/A     62  37  39 CALM      30.08F
$$

MTZ028>42-056>058-270200-
SOUTHCENTRAL AND SOUTHEAST MONTANA

CITY           SKY/WX    TMP DP  RH WIND       PRES   REMARKS
BAKER          CLOUDY    57  43  59 W8        30.17F
BILLINGS       CLOUDY    69  46  43 SW9       30.17F
LIVINGSTON     CLOUDY    66  38  35 SW5       30.22F
MILES CITY     CLEAR     63  49  60 SW6       30.14F
BIG TIMBER     CLEAR     66  43  42 SW12      30.23S
EKALAKA          N/A     58  42  55 SW3       30.16F
FORSYTH          N/A     70  46  43 SE3       30.15F
LAUREL           N/A     67  45  45 SW5       30.16F
ROUNDUP          N/A     72  43  35 SE3       30.05F
$$

REGIONAL REPORTS...DAKOTAS

CITY           SKY/WX    TMP DP  RH WIND       PRES   REMARKS
WILLISTON      CLOUDY    58  42  55 W6        30.09F
MINOT          CLEAR     57  37  47 W10       30.05F
DICKINSON      CLOUDY    55  39  54 W3        30.12F
CROSBY           N/A     54  39  58 CALM      30.10F
WATFORD CITY     N/A     55  45  67 SW5       30.10F
BISMARCK       CLEAR     60  36  40 NW9       30.08F
GRAND FORKS    CLEAR     55  37  50 NW10      29.92S
FARGO          CLEAR     57  29  34 W8        29.94R
BUFFALO SD       N/A     60  41  49 NW10      30.12S
RAPID CITY     CLEAR     61  40  45 N14       30.19S
$$

REGIONAL REPORTS...WYOMING/IDAHO/WASHINGTON

CITY           SKY/WX    TMP DP  RH WIND       PRES   REMARKS
GILLETTE       CLOUDY    54  48  80 W7        30.26S
SHERIDAN       CLOUDY    60  51  72 SW5       30.24F
BUFFALO WY     CLOUDY    63  44  50 SW3       30.30S
CODY           CLOUDY    63  47  55 E7        30.30S
YELLOWSTONE LA   N/A     50  44  80 CALM      30.47S
IDAHO FALLS    CLOUDY    66  45  46 CALM      30.29F
SALMON         CLEAR     70  50  49 CALM      30.18F
BOISE            N/A     82  39  21 S5        30.13F
SPOKANE        PTCLDY    81  46  29 NE6       30.05F
$$

REGIONAL REPORTS...ALBERTA

CITY           SKY/WX    TMP DP  RH WIND       PRES   REMARKS
EDMONTON       PTCLDY    70  41  35 S5        29.83F
CALGARY        MOCLDY    72  36  26 VRB2      29.95F
LETHBRIDGE     PTCLDY    72  41  33 SW14      30.00F
MEDICINE HAT   CLEAR     68  45  42 S5        29.97F
WATERTON GATE    N/A     66  39  37 SW16G22     N/A
CARDSTON         N/A     70  41  35 SW6         N/A
MILK RIVER       N/A     70  39  32 SW7         N/A
$$

REGIONAL REPORTS...SASKATCHEWAN

CITY           SKY/WX    TMP DP  RH WIND       PRES   REMARKS
SWIFT CURRENT  CLEAR     59  43  55 SE9       30.04F
REGINA         PTCLDY    59  37  44 VRB2      30.08S
SASKATOON      PTCLDY    59  39  47 S6        30.04F
CYPRESS HILLS    N/A     55  39  54 S6          N/A
VAL MARIE        N/A     59  46  63 S6          N/A
ROCKGLEN         N/A     59  39  47 W1          N/A
ASSINIBOIA       N/A     64  39  39 S5          N/A
$$




USA.gov is the U.S. government's official web portal to all federal, state and local government web resources and services.